www.pogodaiklimat.ru

Погода и климат >> Архив погоды >> Россия >> Калужская область >> Калуга


АРХИВ ПОГОДЫ в Калуге

Время (UTC), дата Ветер
(напр.,м/с)
 
Видим.   Явления Облачность Т
(С)
Тd
(С)
f
(%)
Тe
(С)
Тes
(С)
Комфортность P
(гПа)
Po
(гПа)
Тmin
(С)
Tmax
(С)
R
(мм)
R24
(мм)
S
(см)
00 14.09 ЮЗ 4 10 км 10/10 1000 м
[]
+16.1 +10.0 67 +15 +15 1012.7 986.9
03 14.09 З 2
{11}
10 км в посл. час дождь 10/10 600 м
[Sc]
+13.5 +11.5 88 +13 +13 1013.1 987.2 +13.5 0.8
06 14.09 З 3
{10}
10 км {дождь} 10/9 1000 м
[Sc Ci fib]
+12.6 +7.2 70 +11 +11 1015.3 989.2 +12.2 0.8
09 14.09 З 3
{10}
10 км осадки на расстоянии 9/3 600 м
[Cb cap Ac trans]
+13.7 +7.9 68 +13 +15 1016.6 990.6
12 14.09 З 3 10 км {ливн. осадки} 5/4 600 м
[Cu med, cong Ac lent]
+15.6 +2.8 42 +15 +18 1017.1 991.2
15 14.09 З 2
{10}
10 км осадки на расстоянии 8/3 1000 м
[Cb cap Ac As]
+12.9 +3.7 54 +12 +12 1018.4 992.2 0.0
18 14.09 ЮЗ 2 10 км ясно +8.8 +4.6 75 +7 +7 1018.8 992.3 +16.7 0.0
21 14.09 ЮЗ 2 10 км 9/0
[Ci]
+7.5 +5.2 85 +5 +5 1019.0 992.3
00 15.09 З 1 10 км 10/0
[Ac und]
+7.2 +5.3 88 +6 +6 1018.4 991.7
03 15.09 З 2 10 км 10/10 600 м
[Sc]
+6.3 +5.0 91 +4 +4 1018.9 992.1 +6.1
06 15.09 З 1 10 км 9/9 600 м
[Cu Sc]
+6.5 +4.9 90 +5 +6 1019.1 992.3 +6.1
09 15.09 ЮЗ 5 10 км 5/3 600 м
[Cu hum Ci fib]
+13.0 +3.4 52 +11 +14 1017.6 991.4
12 15.09 З 4-10
{10}
10 км 4/3 600 м
[Cu hum Ci fib]
+14.6 +1.9 42 +14 +16 1015.4 989.4
15 15.09 ЮЗ 5-10
{10}
10 км 10/8 1000 м
[Sc Cs]
+13.5 +3.1 49 +12 +12 1012.5 986.5
18 15.09 ЮЗ 5-12
{12}
10 км слаб. дождь 10/10 1000 м
[Sc]
+9.6 +7.7 88 +6 +6 1010.6 984.3 +14.9 2
21 15.09 ЮЗ 5-11
{12}
10 км слаб. дождь 10/10 600 м
[Sc]
+10.2 +7.3 82 +7 +7 1007.6 981.5
00 16.09 ЮЗ 5-10
{10}
10 км слаб. дождь 10/10 1000 м
[Sc]
+9.9 +7.6 86 +7 +7 1004.5 978.5
03 16.09 ЮЗ 5 10 км слаб. ливневой дождь 10/8 300 м
[Cb cap As trans]
+9.5 +8.3 92 +6 +6 1002.6 976.6 +9.3 5
06 16.09 ЮЗ 5
{11}
10 км {ливн. осадки, дождь} 10/9 200 м
[Sc As op]
+10.4 +8.9 90 +7 +7 1001.1 975.2 +9.3 5
09 16.09 ЮЗ 6-11
{13}
10 км слаб. ливневой дождь 9/8 600 м
[Cb cap Ac lent]
+12.6 +7.9 73 +10 +11 1000.1 974.4
12 16.09 З 3
{14}
10 км слаб. ливневой дождь 9/9 600 м
[Cb cap Ac lent]
+13.5 +7.3 66 +12 +13 1000.3 974.6
15 16.09 З 4
{10}
10 км {ливн. осадки} 8/4 600 м
[Cb cap Ac lent Ci fib]
+14.3 +6.6 60 +13 +13 1000.7 975.1 2
18 16.09 ЮЗ 5
{10}
10 км {ливн. осадки} 3/3 1000 м
[Sc diur, vesp]
+11.6 +7.2 74 +9 +9 1001.4 975.5 +15.7 0.5
21 16.09 ЮЗ 4 10 км 6/0
[Ac trans]
+10.0 +6.9 81 +7 +7 1000.9 974.9
00 17.09 ЮЗ 4 10 км 8/0
[Ac cast]
+9.0 +6.9 87 +6 +6 1000.3 974.3
03 17.09 ЮЗ 4 10 км 9/0
[Ac lent Ci sp]
+8.3 +6.4 88 +5 +5 1000.1 974.0 +8.2
06 17.09 ЮЗ 4
{10}
10 км 8/6 600 м
[Sc diur, vesp Ac trans]
+9.4 +6.0 79 +7 +7 1000.1 974.1 +8.1
09 17.09 ЮЗ 5-10
{11}
10 км 10/8 300 м
[Sc diur, vesp Ac trans]
+11.3 +4.6 63 +9 +9 999.8 974.0
12 17.09 З 3
{13}
10 км слаб. ливневой дождь 8/4 600 м
[Cb calv Ac trans]
+11.3 +7.0 75 +10 +11 1000.2 974.3
15 17.09 З 4
{10}
10 км 9/6 600 м
[Cb cap Ac cuf]
+10.6 +4.6 66 +8 +8 1000.7 974.7 0.8
18 17.09 ЮЗ 3 10 км 6/6 1000 м
[Sc diur, vesp]
+8.7 +5.4 80 +6 +6 1001.2 975.1 +13.1 0.8
21 17.09 ЮЗ 2 10 км 4/4 600 м
[Sc]
+7.6 +5.3 85 +6 +6 1000.8 974.6
00 18.09 ЮЗ 3 10 км 10/10 600 м
[Sc]
+7.2 +4.9 85 +4 +4 1000.5 974.3
03 18.09 ЮЗ 1 10 км 6/6 300 м
[Sc]
+4.7 +3.8 94 +3 +3 999.9 973.4 +4.6
06 18.09 ЮВ 1 4000 м слаб. дождь 10/10 600 м
[Sc]
+6.5 +5.3 92 +5 +5 998.9 972.7 +4.6 0.0
09 18.09 Ю 2 4000 м слаб. морось {дождь} 10/10 200 м
[Frnb]
+7.8 +6.5 91 +6 +6 998.3 972.2
12 18.09 штиль 0 10 км {морось} 10/10 300 м
[Sc]
+8.7 +6.1 84 +8 +8 997.5 971.5
15 18.09 штиль 0 10 км {дождь} 10/10 600 м
[Sc]
+8.8 +6.5 85 +8 +8 997.7 971.7 0.5
18 18.09 СЗ 1 10 км {дождь} 8/8 1000 м
[Sc]
+7.1 +6.0 93 +6 +6 999.7 973.5 +9.3 0.7
21 18.09 СЗ 2 10 км 3/3 1000 м
[Sc]
+5.6 +4.7 94 +3 +3 1002.0 975.6
00 19.09 З 1 10 км 8/8 600 м
[Sc]
+5.3 +4.5 95 +4 +4 1004.6 978.0
03 19.09 З 2 10 км 8/8 600 м
[Sc]
+5.5 +4.7 95 +3 +3 1006.7 980.2 +5.2 0.3
06 19.09 З 2 10 км 9/8 300 м
[Cu Sc Ac cast]
+7.2 +5.6 90 +5 +5 1009.0 982.5 +5.2
09 19.09 З 2 10 км 9/8 600 м
[Cu Sc Ac cast Ci fib]
+10.8 +5.4 69 +10 +11 1010.3 984.2
12 19.09 З 2 10 км слаб. ливневой дождь 10/10 600 м
[Cb cap]
+9.2 +5.1 76 +8 +8 1011.3 984.9
15 19.09 З 1 10 км 9/8 600 м
[Cb cap Ac As Ci fib]
+10.1 +4.9 70 +10 +10 1012.0 985.7 0.3
18 19.09 СЗ 1 10 км ясно +5.9 +3.4 84 +5 +5 1013.8 987.1 +12.6 0.3
21 19.09 штиль 0 10 км 5/0
[Ci fib]
+3.1 +2.0 92 +2 +2 1014.1 987.1
00 20.09 З 1 10 км 9/0
[Ac lent Ci fib]
+4.2 +3.1 93 +3 +3 1014.0 987.1
03 20.09 В 1 10 км 10/3 600 м
[Sc Ac lent]
+4.2 +3.4 95 +3 +3 1013.6 986.7 +3.1
06 20.09 ЮВ 2 10 км слаб. дождь 10/8 600 м
[Sc diur, vesp As trans]
+5.6 +4.6 93 +3 +3 1013.6 986.9 +3.1 0.3
09 20.09 Ю 1 10 км {дождь} 10/10 600 м
[Sc diur, vesp]
+7.0 +5.1 88 +6 +6 1013.5 986.9
12 20.09 З 1 10 км {дождь} 8/4 1000 м
[Sc diur, vesp Ac trans]
+8.5 +5.3 80 +8 +10 1013.0 986.6
15 20.09 СЗ 1 10 км 6/4 600 м
[Sc diur, vesp Ac trans Ci fib]
+7.0 +5.2 88 +6 +6 1013.5 986.9 4
18 20.09 СЗ 1 10 км 9/9 600 м
[Sc diur, vesp]
+5.4 +4.3 93 +4 +4 1014.9 988.1 +8.8 4

 

Местоположение метеостанции Калуга (Калужская область, Россия): широта 54.57 долгота 36.33 высота над уровнем моря 221 м.

В архиве по умолчанию представлена погода в Калуге за последнюю неделю. Архивные данные за месяц целиком и за предыдущие месяцы, начиная с января 2011 года, Вы можете получить, выбрав интересующий диапазон дат из раскрывающегося списка и нажав кнопку "Ввод!".


*Определитесь, кто Вы:
робот инопланетянин человек

Внимание! Время в таблицах - всемирное. Для получения местного времени необходимо прибавить поправку, которая равна 3 ч.

Смотрите также архив погоды в соседних городах и на ближайших метеорологических станциях:

Погода в Алексине (Тульская область, Россия) (49 км)
Погода в Суворове (Тульская область, Россия) (51 км)
Погода в Малоярославце (Калужская область, Россия) (51 км)
Погода в Обнинске (Калужская область, Россия) (61 км)
Погода в Сухиничах (Калужская область, Россия) (82 км)
Погода в Серпухове (Московская область, Россия) (83 км)
Погода в Мосальске (Калужская область, Россия) (85 км)
Погода в Туле (Тульская область, Россия) (92 км)
Погода в Наро-Фоминске (Московская область, Россия) (93 км)
Погода в Мелихово (Московская область, Россия) (104 км)

Пояснения к столбцам:

Ветер - указаны скорость ветра в м/с - средняя за 10 мин, порывы в срок и между сроками (в фигурных скобках) и направление, откуда дует ветер: С - северный, СВ - северо-восточный, В - восточный, ЮВ - юго-восточный, Ю - южный, ЮЗ - юго-западный, З - западный, СЗ - северо-западный.
Видимость - горизонтальная дальность видимости в метрах или километрах. При видимости от 1 до 10 км при отсутствии осадков обычно наблюдается дымка, при ухудшении видимости до 1 км и менее - туман. В сухую погоду видимость может ухудшаться дымом, пылью или мглою.
Явления - указаны атмосферные явления, наблюдавшиеся в срок или в последний час перед сроком; фигурными скобками обозначены явления, наблюдавшиеся между сроками (за 1-3 часа до срока); квадратными скобками обозначены град или гололедные отложения с указанием их диаметра в мм.
Облачность - указаны через наклонную черту общая и нижняя облачность в баллах и высота нижней границы облаков в метрах; квадратными скобками обозначены формы облаков: Ci - перистые, Cs - перисто-слоистые, Cc - перисто-кучевые, Ac - высококучевые, As - высокослоистые, Sc - слоисто-кучевые, Ns - слоисто-дождевые, Cu - кучевые, Cb - кучево-дождевые. Подробнее классификацию облаков см. в Атласе облаков (PDF).
T - Температура воздуха - температура, измеренная на высоте 2 м над землей.
Td - Температура точки росы - температура, при понижении до которой содержащийся в воздухе водяной пар достигнет насыщения.
f - Относительная влажность воздуха - влажноcть воздуха, измеренная на высоте 2 м над землей.
Te - Эффективная температура - температура, которую ощущает одетый по сезону человек в тени. Характеристика душности погоды. При расчете учитывается влияние влажности воздуха и скорости ветра на теплоощущения человека.
Tes - Эффективная температура на солнце - температура, которую ощущает человек, с поправкой на солнечный нагрев. Характеристика знойности погоды. Зависит от высоты солнца над горизонтом, облачности и скорости ветра. Ночью, в пасмурную погоду, а также при ветре 12 м/с и более поправка равна нулю.
P - Атмосферное давление - приведенное к уровню моря атмосферное давление.
Po - Атмосферное давление - измеренное на уровне метеостанции атмосферное давление.
Tmin - Минимальная температура - минимум температуры воздуха на высоте 2 м над землей.
Tmax - Максимальная температура - максимум температуры воздуха на высоте 2 м над землей.
R - Количество осадков - Количество выпавших осадков за период времени, мм. При наведении курсора мыши на число - период времени, за который выпало указанное количество осадков.
R24 - Количество осадков - Количество выпавших осадков за 24 часа, мм.
S - Снежный покров - Высота снежного покрова, см. При наведении курсора мыши на число - состояние снежного покрова и степень покрытия местности в баллах.